Location: Camps Bay
(33.9517°S, 18.3844°E)
Time: 21:53:40
(UTC+00:00)

Cosmos 1503 Rocket - Pass Details

Date: 18 January 2020
Orbit: 752 x 791 km, 74.0° (Epoch: 27 February)

Event Time Altitude Azimuth Distance (km) Brightness Sun altitude
Exits shadow 00:53:26 68° 110° (ESE) 832 4.2 -28.7°
Drops below altitude 10° 00:58:17 10° 158° (SSE) 2,321 7.4 -28.2°
Sets 01:00:40 0° 160° (SSE) 3,249 8.4 -27.9°
